EW7348 Weather Reports


time (UTC)temp
F
wind
direction
speed
knots
gust
knots
rain 1hr
in
rain 24hr
in
rain mn
in
humidity
%
barometer
mb
20260506201719 53 270 2.6 4.3 0.00 0.56 0.53 100 1008.4
20260506200718 53 263 2.6 3.5 0.00 0.56 0.53 100 1008.4
20260506195719 53 245 2.6 4.3 0.00 0.56 0.53 100 1008.5
20260506194717 53 264 3.5 5.2 0.00 0.56 0.53 100 1008.5
20260506193717 54 258 3.5 5.2 0.00 0.56 0.53 100 1008.5
20260506192719 55 265 4.3 6.1 0.00 0.56 0.53 100 1008.4
20260506191818 57 264 3.5 4.3 0.00 0.56 0.53 100 1008.4
20260506190816 58 253 1.7 3.5 0.00 0.57 0.53 100 1008.4
20260506185817 58 251 2.6 3.5 0.01 0.57 0.53 100 1008.4
20260506184817 59 254 2.6 4.3 0.01 0.57 0.53 100 1008.2
20260506183817 59 180 0.0 0.9 0.02 0.57 0.53 100 1008.2
20260506182816 59 180 0.9 1.7 0.04 0.57 0.53 100 1008.1
20260506181816 59 180 1.7 2.6 0.04 0.57 0.53 100 1008.2
20260506175918 58 180 0.9 2.6 0.05 0.56 0.52 100 1008.4
20260506174916 58 180 0.0 1.7 0.07 0.56 0.52 100 1008.5
20260506173916 58 191 1.7 3.5 0.07 0.55 0.51 100 1008.4
20260506172915 58 225 0.0 0.9 0.08 0.54 0.49 100 1008.6
20260506171917 57 264 0.0 0.9 0.08 0.53 0.49 100 1008.5
20260506171818 57 195 0.9 1.7 0.08 0.53 0.49 100 1008.5
20260506170816 57 220 0.9 2.6 0.09 0.52 0.48 100 1008.7
20260506165818 57 185 0.0 0.9 0.08 0.50 0.46 100 1008.6
20260506163915 57 180 1.7 2.6 0.08 0.48 0.44 100 1009.0
20260506162016 57 180 4.3 6.1 0.08 0.45 0.41 100 1009.1
20260506161115 56 180 3.5 4.3 0.08 0.44 0.40 100 1008.9
20260506160118 56 180 2.6 6.1 0.08 0.43 0.39 100 1009.1
20260506155216 56 184 0.9 2.6 0.09 0.42 0.38 100 1009.2
20260506154218 56 180 2.6 5.2 0.09 0.41 0.37 100 1009.2
20260506153315 56 180 0.9 5.2 0.10 0.40 0.35 100 1009.5
20260506152316 55 180 0.0 0.0 0.11 0.38 0.34 100 1009.6
20260506150315 55 180 0.0 1.7 0.12 0.36 0.31 100 1009.8
20260506145316 55 180 0.0 0.0 0.13 0.35 0.28 100 1009.9
20260506144317 55 180 0.0 2.6 0.12 0.33 0.28 100 1010.1
20260506143316 55 180 0.0 1.7 0.12 0.31 0.26 100 1010.3
20260506142415 55 180 0.9 1.7 0.11 0.28 0.23 100 1010.5
20260506141416 55 180 2.6 3.5 0.08 0.26 0.21 100 1010.3
20260506140415 55 180 2.6 4.3 0.07 0.24 0.19 100 1010.5
20260506135415 55 180 0.0 0.0 0.07 0.23 0.17 100 1010.5
20260506134416 55 180 0.0 1.7 0.05 0.21 0.16 100 1010.6
20260506133416 54 180 0.0 0.9 0.05 0.20 0.14 100 1010.4
20260506132415 54 180 0.0 0.9 0.04 0.18 0.13 100 1010.1
20260506131416 54 180 0.0 0.0 0.05 0.18 0.13 100 1010.1
20260506130416 53 180 0.0 0.9 0.06 0.17 0.12 100 1010.3
20260506125415 53 180 0.0 0.9 0.06 0.16 0.11 100 1010.1
20260506124416 52 180 0.0 0.0 0.06 0.16 0.11 100 1010.3
20260506123416 52 180 0.0 0.0 0.06 0.15 0.10 100 1010.5
20260506121416 52 180 0.0 0.0 0.05 0.13 0.07 100 1010.7
20260506120415 52 180 0.0 0.0 0.04 0.11 0.06 100 1010.7
20260506115515 52 270 1.7 1.7 0.03 0.10 0.05 100 1011.1
20260506114615 52 270 0.0 0.0 0.03 0.10 0.05 100 1011.0
20260506113615 51 247 0.0 0.0 0.02 0.09 0.04 100 1010.7
20260506112616 51 247 0.0 0.0 0.02 0.09 0.03 100 1010.7
20260506111616 51 180 0.0 0.0 0.01 0.08 0.03 100 1010.6
20260506110616 51 180 0.0 0.0 0.01 0.07 0.02 100 1010.6
20260506105715 51 180 0.0 0.0 0.01 0.07 0.02 100 1010.6
20260506104716 51 180 0.0 0.0 0.01 0.07 0.02 100 1010.5
20260506102814 51 234 0.0 0.9 0.01 0.07 0.02 100 1010.6
20260506101831 51 185 1.7 3.5 0.01 0.07 0.02 100 1010.6
20260506100817 51 180 0.0 1.7 0.00 0.06 0.01 100 1010.4
20260506094814 51 180 0.9 1.7 0.00 0.06 0.01 100 1010.3
20260506092816 51 180 0.0 1.7 0.00 0.06 0.01 100 1010.2
20260506091814 51 270 0.0 0.0 0.00 0.06 0.01 100 1010.2
20260506090815 51 247 0.0 0.0 0.00 0.06 0.01 100 1010.2
20260506085816 51 247 0.0 0.0 0.00 0.06 0.01 100 1010.4
20260506084815 51 247 0.0 0.0 0.00 0.06 0.01 100 1010.5
20260506083815 51 180 0.0 0.0 0.00 0.06 0.01 100 1010.4
20260506082814 51 247 0.0 0.0 0.00 0.06 0.01 100 1010.7
20260506081815 51 247 0.0 0.0 0.00 0.06 0.01 100 1010.7
20260506080814 51 247 0.0 0.0 0.00 0.06 0.01 100 1011.0
20260506072815 51 247 0.0 0.0 0.00 0.06 0.01 100 1011.5
20260506070814 52 247 0.0 0.0 0.00 0.06 0.01 100 1011.6
20260506061816 52 270 0.0 0.0 0.00 0.06 0.01 100 1011.8
20260506060816 53 270 0.0 0.9 0.00 0.06 0.01 100 1011.7
20260506051014 53 248 1.7 1.7 0.01 0.06 0.01 100 1011.7
20260506045013 53 254 1.7 4.3 0.00 0.05 0.00 100 1012.0
20260506044012 53 270 2.6 3.5 0.00 0.05 0.00 100 1012.0
20260506043014 54 247 0.9 2.6 0.00 0.05 0.00 100 1012.3
20260506042016 54 251 0.9 2.6 0.00 0.05 0.00 100 1012.1
20260506041014 55 268 3.5 5.2 0.00 0.05 0.00 100 1012.3
20260506040114 55 258 3.5 6.1 0.00 0.05 0.00 100 1012.6
20260506035207 55 258 2.6 3.5 0.00 0.05 0.05 100 1012.3
20260506032405 56 270 6.1 7.8 0.00 0.05 0.05 100 1012.3
20260506025507 57 269 4.3 7.0 0.00 0.05 0.05 100 1012.2
20260506024507 58 256 2.6 3.5 0.00 0.05 0.05 100 1012.1
20260506023605 58 261 4.3 8.7 0.00 0.05 0.05 100 1012.0
20260506022607 59 260 1.7 3.5 0.00 0.05 0.05 100 1012.0
20260506021706 59 253 4.3 8.7 0.00 0.05 0.05 100 1011.9
20260506015706 57 270 0.0 0.9 0.00 0.05 0.05 100 1011.7
20260506014707 57 180 0.0 0.0 0.00 0.05 0.05 100 1011.5
20260506013806 57 180 0.0 0.0 0.00 0.05 0.05 100 1011.5
20260506012806 58 180 0.0 0.0 0.01 0.05 0.05 100 1010.9
20260506011808 58 180 0.0 0.0 0.01 0.05 0.05 100 1010.8
20260506010805 58 180 0.0 0.0 0.01 0.05 0.05 100 1010.5
20260506005806 58 180 0.0 0.0 0.01 0.05 0.05 100 1010.4
20260506003906 58 180 0.0 0.9 0.01 0.05 0.05 100 1010.4
20260506002907 58 180 0.0 0.0 0.00 0.04 0.04 100 1010.6
20260506001907 58 180 0.0 0.0 0.00 0.04 0.04 100 1010.3
20260506001005 58 180 0.0 0.0 0.00 0.04 0.04 100 1010.0
20260506000104 58 180 0.0 2.6 0.00 0.04 0.04 100 1009.9
20260505235107 58 180 0.0 0.0 0.00 0.04 0.04 100 1009.9
20260505234206 59 180 0.0 0.0 0.00 0.04 0.04 100 1009.8
20260505233208 59 180 0.0 0.0 0.00 0.04 0.04 100 1009.7
20260505232206 59 180 0.0 0.0 0.00 0.04 0.04 100 1009.6
20260505231206 60 180 0.0 0.0 0.00 0.04 0.04 100 1009.4
20260505230204 60 180 1.7 1.7 0.00 0.04 0.04 100 1009.2
20260505225207 60 180 0.0 0.0 0.01 0.04 0.04 100 1009.2
20260505224305 59 180 0.0 0.0 0.02 0.04 0.04 100 1009.3
20260505223306 59 180 0.0 0.0 0.02 0.04 0.04 100 1009.3
20260505221405 59 264 0.0 0.9 0.02 0.04 0.04 100 1009.7
20260505220405 59 252 1.7 4.3 0.02 0.04 0.04 100 1010.0
20260505215406 60 263 2.6 5.2 0.01 0.03 0.03 100 1010.2
20260505213406 62 257 7.0 11.3 0.00 0.02 0.02 100 1010.5
20260505212405 63 242 5.2 8.7 0.00 0.02 0.02 100 1009.8
20260505211406 63 182 4.3 9.6 0.00 0.02 0.02 100 1008.9
20260505205407 65 222 5.2 8.7 0.00 0.02 0.02 100 1008.6
20260505204503 67 252 6.1 11.3 0.00 0.02 0.02 100 1009.0
20260505203506 70 261 7.0 11.3 0.00 0.02 0.02 100 1008.3
20260505202503 70 187 2.6 4.3 0.00 0.02 0.02 100 1007.4